Погода в Нижней Павловке

Россия / Оренбургская область     51°42′43″N   54°47′17″E
темп.,
°C
ветер,
м/с
пор.,
м/с
влажн.,
%
обл.,
%
осадки,
мм/ч
давл.,
гПа
погр.,
м
25 июля, вс
вс2523:00+20с4114923 0.0 1009217
02:00+18ссв345212 0.0 101048
05:00+18сз115581 0.0 101111
08:00+20с34525 0.0 1013337
11:00+24с45436 0.0 10141437
14:00+27ссз552836 0.0 10142951
17:00+27ссз752858 0.0 10152638
20:00+24ссз56310 0.0 1017835
26 июля, пн
пн2623:00+19с512400 0.0 1019302
02:00+16с48440 0.0 1020143
05:00+14с33510 0.0 102048
08:00+18с34390 0.0 1021245
11:00+23ссв22270 0.0 10211938
14:00+25ссз22225 0.0 10202535
17:00+27с33215 0.0 10182988
20:00+24с672723 0.0 1018719
27 июля, вт
вт2723:00+18с35365 0.0 101976
02:00+17ссз33405 0.0 102034
05:00+14с36480 0.0 101994
08:00+19ссв46380 0.0 1020269
11:00+24с44273 0.0 10192357
14:00+26ссз44246 0.0 10172824
17:00+27ссз55227 0.0 10153056
20:00+25с57282 0.0 1015631
28 июля, ср
ср2823:00+19с2238100 0.0 101517
02:00+18ссз334825 0.0 101443
05:00+16с336044 0.0 101441
08:00+19с57604 0.0 1015517
11:00+23с56380 0.0 10151751
14:00+25с56282 0.0 10142309
17:00+26с66220 0.0 10132408
20:00+24ссв56250 0.0 1014534
29 июля, чт
чт2923:00+18ссв34370 0.0 101546
02:00+15всв22420 0.0 101514
05:00+14в11460 0.0 101410
08:00+18ю11370 0.0 1015152
11:00+25юз3424100 0.0 10141185
14:00+28зюз4522100 0.0 10122540
17:00+30зюз452099 0.0 10103092
20:00+28юз5824100 0.0 1009339